Regional Weather Roundup
Issued by NWS

Home | Current Version | Previous Version | Text Only | Print | Product List | Glossary On
Versions: 1 2 3 4 5 6 7 8 9 10 11 12 13 14 15 16 17 18 19 20 21 22 23 24 25 26 27 28 29 30 31 32 33 34 35 36 37 38 39 40 41 42 43 44 45 46 47 48 49 50
000
ASUS45 KCYS 170710
RWRWY

WYOMING REGIONAL WEATHER ROUNDUP
NATIONAL WEATHER SERVICE CHEYENNE WY
1200 AM MST MON FEB 17 2020

NOTE:  "FAIR" INDICATES FEW OR NO CLOUDS BELOW 12,000 FEET
WITH NO SIGNIFICANT WEATHER AND/OR OBSTRUCTIONS TO VISIBILITY.

WYZ001-170800-
...YELLOWSTONE NATIONAL PARK...

CITY           SKY/WX    TMP DP  RH WIND       PRES   REMARKS
LK YELLOWSTONE   N/A     15  12  88 VRB7      29.85R WCI   5
W YELLOWSTONE  NOT AVBL

$$
WYZ002>013-054>058-071-098>099-170800-
...NORTHERN WYOMING...

CITY           SKY/WX    TMP DP  RH WIND       PRES   REMARKS
JACKSON        MOCLDY    22  14  71 NW6       29.90R WCI  14
CODY           CLOUDY    26  23  88 SW5       29.87R WCI  20
GREYBULL       CLOUDY    29  22  75 W15       29.84R WCI  18
WORLAND        CLOUDY    24  22  91 S10       29.86R WCI  14
SHERIDAN       CLOUDY    30  26  85 W10       29.85S WCI  21
BUFFALO        CLOUDY    26  23  88 N21       29.79R WCI  12
GILLETTE       FLURRIES  30  29  96 W9        29.79R WCI  22
HULETT         CLOUDY    32  25  74 MISG      29.79R
NEWCASTLE      LGT SNOW  30  30 100 N7        29.78S WCI  23

$$
WYZ014>020-022>026-101>103-170800-
...CENTRAL WYOMING...

CITY           SKY/WX    TMP DP  RH WIND       PRES   REMARKS
BIG PINEY      LGT SNOW  20  14  77 NW16      29.91R WCI   6
PINEDALE       PTCLDY    19   9  63 W8        29.90S WCI   9
DUBOIS         CLOUDY    19  14  79 NW7       29.81S WCI  10
LANDER         PTCLDY    28  16  60 MISG      29.83R
RIVERTON       CLOUDY    23  19  85 CALM      29.85R
CASPER         LGT SNOW  26  23  88 NW23G33   29.79R FOG     WCI  11
DOUGLAS        CLOUDY    31  29  92 NW14      29.76S WCI  21

$$
WYZ021-027>030-104>119-170800-
...SOUTHERN WYOMING...

CITY           SKY/WX    TMP DP  RH WIND       PRES   REMARKS
EVANSTON       SNOW      25  22  88 NW20      29.99S VSB 1/2 WCI  11
KEMMERER       PTCLDY    23  18  80 W24       29.95R HAZE    WCI   7
FORT BRIDGER   NOT AVBL
ROCK SPRINGS   FLURRIES  26  23  88 W20G28    29.93R WCI  12
DIXON          CLOUDY    29  21  73 SW10      29.97S WCI  20
RAWLINS        CLEAR     24  16  71 W23G29    29.88R WCI   9
SARATOGA       FAIR      25  19  80 SW21      29.88S WCI  10
LARAMIE        CLEAR     26  11  52 W28       29.78F WCI  10
CHEYENNE       PTCLDY    35  14  42 W25G35    29.78R WCI  23
TORRINGTON     CLOUDY    38  30  73 VRB3      29.74F
PINE BLUFFS    FAIR      32  27  80 W8        29.80R WCI  25

$$



USA.gov is the U.S. government's official web portal to all federal, state and local government web resources and services.